GW0905 Weather Reports


time (UTC)temp
C
wind
direction
speed
KPH
gust
KPH
rain 1hr
cm
rain 24hr
cm
rain mn
cm
humidity
%
barometer
mb
20260508065029 12 84 3.2 4.8 0.00 0.00 0.00 26 1016.4
20260508064529 12 75 3.2 8.0 0.00 0.00 0.00 26 1016.4
20260508064028 12 66 4.8 8.0 0.00 0.00 0.00 26 1016.4
20260508063528 12 69 1.6 8.0 0.00 0.00 0.00 26 1016.4
20260508063029 12 341 1.6 4.8 0.00 0.00 0.00 26 1016.4
20260508062529 13 91 3.2 6.4 0.00 0.00 0.00 27 1016.4
20260508062029 13 88 3.2 6.4 0.00 0.00 0.00 26 1016.3
20260508061522 13 73 1.6 6.4 0.00 0.00 0.00 26 1016.4
20260508061022 13 93 1.6 6.4 0.00 0.00 0.00 26 1016.4
20260508060523 13 65 1.6 6.4 0.00 0.00 0.00 26 1016.4
20260508060022 13 91 1.6 4.8 0.00 0.00 0.00 26 1016.3
20260508055740 13 99 1.6 6.4 0.00 0.00 0.00 26 1016.3
20260508055239 13 102 3.2 6.4 0.00 0.00 0.00 27 1016.3
20260508054519 13 81 3.2 9.7 0.00 0.00 0.00 26 1016.3
20260508054238 13 77 3.2 9.7 0.00 0.00 0.00 26 1016.3
20260508053517 13 85 1.6 9.7 0.00 0.00 0.00 27 1016.3
20260508053016 13 84 3.2 6.4 0.00 0.00 0.00 27 1016.3
20260508052518 13 90 3.2 6.4 0.00 0.00 0.00 27 1016.3
20260508052017 13 92 1.6 4.8 0.00 0.00 0.00 27 1016.4
20260508051513 13 114 1.6 4.8 0.00 0.00 0.00 27 1016.4
20260508051013 13 113 1.6 4.8 0.00 0.00 0.00 28 1016.4
20260508050512 13 111 1.6 4.8 0.00 0.00 0.00 27 1016.4
20260508050013 13 128 1.6 4.8 0.00 0.00 0.00 27 1016.4
20260508045512 14 124 1.6 4.8 0.00 0.00 0.00 27 1016.3
20260508045013 14 94 1.6 4.8 0.00 0.00 0.00 26 1016.4
20260508044512 14 66 1.6 4.8 0.00 0.00 0.00 26 1016.4
20260508044013 14 76 1.6 4.8 0.00 0.00 0.00 26 1016.4
20260508043513 14 92 1.6 4.8 0.00 0.00 0.00 26 1016.3
20260508043008 15 96 1.6 4.8 0.00 0.00 0.00 26 1016.3
20260508042509 15 87 1.6 4.8 0.00 0.00 0.00 25 1016.2
20260508042009 15 82 1.6 4.8 0.00 0.00 0.00 25 1016.2
20260508041509 15 101 1.6 4.8 0.00 0.00 0.00 24 1016.2
20260508041008 15 86 1.6 4.8 0.00 0.00 0.00 24 1016.3
20260508040509 16 85 1.6 4.8 0.00 0.00 0.00 24 1016.2
20260508040008 16 91 1.6 4.8 0.00 0.00 0.00 24 1016.2
20260508035509 16 88 1.6 4.8 0.00 0.00 0.00 23 1016.2
20260508035008 16 96 1.6 4.8 0.00 0.00 0.00 22 1016.1
20260508034508 16 128 1.6 3.2 0.00 0.00 0.00 20 1016.1
20260508034008 17 69 0.0 3.2 0.00 0.00 0.00 20 1015.9
20260508033509 17 333 0.0 1.6 0.00 0.00 0.00 18 1015.8
20260508033008 17 333 0.0 3.2 0.00 0.00 0.00 18 1015.8
20260508032508 17 333 1.6 12.9 0.00 0.00 0.00 17 1015.6
20260508032007 17 298 1.6 12.9 0.00 0.00 0.00 18 1015.5
20260508031504 17 323 0.0 4.8 0.00 0.00 0.00 21 1015.3
20260508031004 17 290 0.0 1.6 0.00 0.00 0.00 21 1015.5
20260508030725 17 149 0.0 0.0 0.00 0.00 0.00 20 1015.2
20260508030003 17 226 0.0 3.2 0.00 0.00 0.00 19 1015.3
20260508025502 17 219 0.0 3.2 0.00 0.00 0.00 19 1015.2
20260508025000 18 288 0.0 3.2 0.00 0.00 0.00 20 1015.2
20260508024721 18 337 0.0 3.2 0.00 0.00 0.00 20 1015.2
20260508023953 18 15 0.0 3.2 0.00 0.00 0.00 20 1015.2
20260508023447 18 99 0.0 3.2 0.00 0.00 0.00 19 1015.1
20260508023203 19 198 0.0 1.6 0.00 0.00 0.00 19 1014.9
20260508022436 19 198 0.0 1.6 0.00 0.00 0.00 18 1014.9
20260508021929 20 199 0.0 0.0 0.00 0.00 0.00 18 1014.9
20260508021423 20 199 0.0 0.0 0.00 0.00 0.00 17 1014.9
20260508020917 20 199 0.0 0.0 0.00 0.00 0.00 16 1014.8
20260508020412 21 199 0.0 3.2 0.00 0.00 0.00 17 1014.8
20260508020129 21 199 1.6 9.7 0.00 0.00 0.00 15 1014.6
20260508015622 21 171 1.6 9.7 0.00 0.00 0.00 14 1014.6
20260508014853 21 217 1.6 6.4 0.00 0.00 0.00 15 1014.5
20260508014346 21 214 3.2 9.7 0.00 0.00 0.00 15 1014.4
20260508013840 21 225 4.8 9.7 0.00 0.00 0.00 14 1014.4
20260508013334 22 206 3.2 9.7 0.00 0.00 0.00 14 1014.4
20260508012828 22 193 3.2 11.3 0.00 0.00 0.00 13 1014.3
20260508012546 22 182 4.8 11.3 0.00 0.00 0.00 13 1014.2
20260508012041 22 184 4.8 9.7 0.00 0.00 0.00 13 1014.3
20260508011309 22 211 4.8 12.9 0.00 0.00 0.00 13 1014.1
20260508010803 22 223 4.8 12.9 0.00 0.00 0.00 12 1014.2
20260508010257 22 178 3.2 9.7 0.00 0.00 0.00 13 1014.1
20260508005751 23 178 3.2 11.3 0.00 0.00 0.00 13 1014.2
20260508005506 23 208 3.2 11.3 0.00 0.00 0.00 13 1014.2
20260508005218 23 165 4.8 11.3 0.00 0.00 0.00 13 1014.1
20260508004234 23 150 6.4 17.7 0.00 0.00 0.00 12 1014.1
20260508004217 23 231 4.8 17.7 0.00 0.00 0.00 12 1014.2
20260508003221 23 257 3.2 11.3 0.00 0.00 0.00 12 1014.2
20260508002716 23 124 4.8 11.3 0.00 0.00 0.00 12 1014.2
20260508002210 23 205 6.4 11.3 0.00 0.00 0.00 11 1014.2
20260508001704 23 225 4.8 11.3 0.00 0.00 0.00 12 1014.2
20260508001424 23 201 3.2 9.7 0.00 0.00 0.00 12 1014.2
20260508000652 24 173 3.2 11.3 0.00 0.00 0.00 11 1014.2
20260508000146 24 180 4.8 12.9 0.00 0.00 0.00 12 1014.2
20260507235640 24 254 4.8 12.9 0.00 0.00 0.00 11 1014.2
20260507235134 25 235 4.8 11.3 0.00 0.00 0.00 11 1014.2
20260507234850 25 213 4.8 12.9 0.00 0.00 0.00 11 1014.3
20260507234121 25 151 4.8 12.9 0.00 0.00 0.00 10 1014.3
20260507233616 25 159 3.2 11.3 0.00 0.00 0.00 10 1014.4
20260507233110 25 193 3.2 11.3 0.00 0.00 0.00 10 1014.5
20260507232604 25 146 3.2 11.3 0.00 0.00 0.00 10 1014.5
20260507232058 25 187 3.2 11.3 0.00 0.00 0.00 10 1014.4
20260507231553 25 242 4.8 11.3 0.00 0.00 0.00 10 1014.5
20260507231046 25 225 4.8 12.9 0.00 0.00 0.00 11 1014.6
20260507230544 25 107 4.8 12.9 0.00 0.00 0.00 10 1014.8
20260507230033 25 275 4.8 12.9 0.00 0.00 0.00 11 1014.6
20260507225527 24 301 4.8 12.9 0.00 0.00 0.00 11 1014.9
20260507225249 25 104 4.8 9.7 0.00 0.00 0.00 12 1014.9
20260507224516 25 130 3.2 9.7 0.00 0.00 0.00 11 1015.0
20260507224229 25 34 3.2 14.5 0.00 0.00 0.00 10 1014.9
20260507223503 25 206 4.8 14.5 0.00 0.00 0.00 12 1015.0
20260507222957 25 139 4.8 12.9 0.00 0.00 0.00 12 1015.0
20260507222452 24 155 3.2 6.4 0.00 0.00 0.00 15 1015.0
20260507221946 24 71 3.2 8.0 0.00 0.00 0.00 17 1015.1
20260507221439 23 355 4.8 14.5 0.00 0.00 0.00 14 1015.1
20260507220934 23 258 4.8 14.5 0.00 0.00 0.00 14 1015.3
20260507220427 23 193 3.2 9.7 0.00 0.00 0.00 13 1015.5
20260507215921 23 73 1.6 6.4 0.00 0.00 0.00 12 1015.7
20260507215637 23 53 3.2 6.4 0.00 0.00 0.00 13 1015.8
20260507214910 23 334 4.8 17.7 0.00 0.00 0.00 14 1015.9
20260507214404 23 246 4.8 17.7 0.00 0.00 0.00 12 1015.9
20260507213858 23 218 3.2 14.5 0.00 0.00 0.00 16 1015.9
20260507213615 23 194 3.2 9.7 0.00 0.00 0.00 15 1016.2
20260507212846 23 113 3.2 9.7 0.00 0.00 0.00 15 1016.3
20260507212340 23 207 3.2 8.0 0.00 0.00 0.00 16 1016.4
20260507212054 22 200 4.8 16.1 0.00 0.00 0.00 16 1016.4
20260507211327 22 233 6.4 16.1 0.00 0.00 0.00 16 1016.5
20260507210821 22 218 4.8 16.1 0.00 0.00 0.00 16 1016.6
20260507210315 22 178 3.2 6.4 0.00 0.00 0.00 15 1016.8
20260507205809 22 247 3.2 8.0 0.00 0.00 0.00 19 1016.9
20260507205306 22 355 3.2 8.0 0.00 0.00 0.00 16 1017.0
20260507204758 21 110 4.8 12.9 0.00 0.00 0.00 16 1017.1
20260507204254 22 289 4.8 12.9 0.00 0.00 0.00 17 1017.3
20260507203746 22 252 3.2 12.9 0.00 0.00 0.00 17 1017.2
20260507203246 21 284 3.2 11.3 0.00 0.00 0.00 20 1017.2
20260507202745 21 263 4.8 12.9 0.00 0.00 0.00 18 1017.3
20260507202247 21 209 4.8 12.9 0.00 0.00 0.00 19 1017.5
20260507201743 21 235 4.8 14.5 0.00 0.00 0.00 19 1017.6
20260507201245 22 221 4.8 14.5 0.00 0.00 0.00 19 1017.8
20260507201008 21 218 3.2 11.3 0.00 0.00 0.00 17 1017.8
20260507200243 21 72 3.2 11.3 0.00 0.00 0.00 18 1017.8
20260507195743 21 322 4.8 11.3 0.00 0.00 0.00 19 1017.8
20260507195244 20 309 4.8 14.5 0.00 0.00 0.00 18 1017.9
20260507195009 21 302 4.8 14.5 0.00 0.00 0.00 19 1018.0
20260507194245 21 94 3.2 9.7 0.00 0.00 0.00 18 1018.0
20260507193740 20 309 4.8 11.3 0.00 0.00 0.00 19 1018.0
20260507193510 21 321 3.2 12.9 0.00 0.00 0.00 17 1018.3
20260507192739 20 275 3.2 12.9 0.00 0.00 0.00 22 1018.3
20260507192240 20 355 3.2 14.5 0.00 0.00 0.00 19 1018.3
20260507191740 20 22 4.8 14.5 0.00 0.00 0.00 21 1018.4
20260507191239 20 167 3.2 9.7 0.00 0.00 0.00 22 1018.4
20260507190739 18 139 3.2 9.7 0.00 0.00 0.00 22 1018.6
20260507190239 19 228 3.2 9.7 0.00 0.00 0.00 23 1018.6
20260507185739 18 244 3.2 12.9 0.00 0.00 0.00 25 1018.7
20260507185235 19 291 3.2 12.9 0.00 0.00 0.00 22 1018.7
20260507184736 18 296 3.2 9.7 0.00 0.00 0.00 22 1018.9
20260507184235 18 60 3.2 9.7 0.00 0.00 0.00 24 1019.0
20260507183735 18 292 1.6 6.4 0.00 0.00 0.00 25 1019.3
20260507183236 18 92 1.6 6.4 0.00 0.00 0.00 22 1019.5
20260507182735 18 90 3.2 8.0 0.00 0.00 0.00 23 1019.6
20260507182236 18 63 3.2 8.0 0.00 0.00 0.00 24 1019.8
20260507181957 18 311 3.2 9.7 0.00 0.00 0.00 27 1019.8
20260507181234 18 308 1.6 12.9 0.00 0.00 0.00 25 1019.8
20260507181211 18 339 3.2 12.9 0.00 0.00 0.00 24 1019.9
20260507180222 17 355 1.6 8.0 0.00 0.00 0.00 25 1019.9
20260507175716 17 91 4.8 14.5 0.00 0.00 0.00 25 1020.0
20260507175211 16 309 6.4 14.5 0.00 0.00 0.00 26 1020.0
20260507174705 17 332 4.8 14.5 0.00 0.00 0.00 30 1020.0
20260507174651 16 5 4.8 16.1 0.00 0.00 0.00 27 1020.2
20260507173653 16 230 6.4 16.1 0.00 0.00 0.00 26 1020.2
20260507173407 16 349 4.8 14.5 0.00 0.00 0.00 24 1020.3
20260507172642 16 331 4.8 12.9 0.00 0.00 0.00 28 1020.3
20260507172139 16 0 4.8 11.3 0.00 0.00 0.00 29 1020.3
20260507171640 16 234 3.2 9.7 0.00 0.00 0.00 32 1020.4
20260507171138 15 207 4.8 12.9 0.00 0.00 0.00 33 1020.6
20260507170636 16 304 4.8 12.9 0.00 0.00 0.00 34 1020.9
20260507170133 15 316 4.8 14.5 0.00 0.00 0.00 34 1020.9
20260507165851 15 337 4.8 14.5 0.00 0.00 0.00 36 1020.9
20260507165129 15 327 4.8 12.9 0.00 0.00 0.00 36 1020.7
20260507164629 15 340 3.2 12.9 0.00 0.00 0.00 37 1020.9
20260507164130 15 36 4.8 12.9 0.00 0.00 0.00 38 1020.9
20260507163629 15 258 4.8 12.9 0.00 0.00 0.00 39 1021.0
20260507163129 15 340 4.8 14.5 0.00 0.00 0.00 39 1021.0
20260507162853 13 87 3.2 14.5 0.00 0.00 0.00 40 1021.0
20260507162347 13 15 3.2 8.0 0.00 0.00 0.00 38 1021.1
20260507161629 13 56 4.8 12.9 0.00 0.00 0.00 41 1021.2
20260507161130 12 298 4.8 12.9 0.00 0.00 0.00 41 1021.1
20260507160629 12 342 4.8 12.9 0.00 0.00 0.00 43 1021.1
20260507160129 12 30 4.8 11.3 0.00 0.00 0.00 45 1021.1
20260507155628 11 61 4.8 9.7 0.00 0.00 0.00 46 1021.3
20260507155127 11 338 3.2 8.0 0.00 0.00 0.00 48 1021.2
20260507154621 11 342 4.8 9.7 0.00 0.00 0.00 49 1021.3
20260507154115 11 18 4.8 9.7 0.00 0.00 0.00 49 1021.4
20260507153609 10 5 4.8 12.9 0.00 0.00 0.00 52 1021.4
20260507153103 10 299 4.8 12.9 0.00 0.00 0.00 53 1021.4
20260507153036 10 66 4.8 11.3 0.00 0.00 0.00 55 1021.6
20260507152050 10 336 4.8 11.3 0.00 0.00 0.00 56 1021.6
20260507151544 9 319 4.8 9.7 0.00 0.00 0.00 57 1021.4
20260507151039 9 20 4.8 12.9 0.00 0.00 0.00 60 1021.6
20260507150532 8 336 6.4 12.9 0.00 0.00 0.00 62 1021.4
20260507150033 8 342 6.4 16.1 0.00 0.00 0.00 62 1021.6
20260507145533 8 348 6.4 16.1 0.00 0.00 0.00 63 1021.7
20260507145033 8 52 4.8 14.5 0.00 0.00 0.00 65 1021.7
20260507144534 7 61 6.4 17.7 0.00 0.00 0.00 65 1021.8
20260507144034 7 351 6.4 17.7 0.00 0.00 0.00 66 1021.7
20260507143533 7 68 6.4 16.1 0.00 0.00 0.00 67 1021.8
20260507143033 7 330 6.4 17.7 0.00 0.00 0.00 68 1021.8
20260507142534 6 325 8.0 17.7 0.00 0.00 0.00 69 1021.8
20260507142259 6 24 8.0 17.7 0.00 0.00 0.00 70 1021.8
20260507141533 6 0 8.0 17.7 0.00 0.00 0.00 70 1021.8
20260507141033 6 335 6.4 17.7 0.00 0.00 0.00 71 1021.8
20260507140533 6 344 6.4 16.1 0.00 0.00 0.00 71 1021.8
20260507140030 5 0 6.4 16.1 0.00 0.00 0.00 72 1021.8
20260507135531 5 48 4.8 12.9 0.00 0.00 0.00 73 1021.9
20260507135031 5 355 4.8 14.5 0.00 0.00 0.00 74 1021.8
20260507134531 5 28 4.8 14.5 0.00 0.00 0.00 75 1021.8
20260507134031 5 22 6.4 19.3 0.00 0.00 0.00 75 1021.8
20260507133530 4 5 6.4 19.3 0.00 0.00 0.00 76 1021.7
20260507133031 4 40 6.4 19.3 0.00 0.00 0.00 76 1021.4
20260507132531 4 17 8.0 19.3 0.00 0.00 0.00 76 1021.4
20260507132031 4 335 6.4 17.7 0.00 0.00 0.00 77 1021.6
20260507131531 3 355 6.4 17.7 0.00 0.00 0.00 77 1021.6
20260507131030 3 24 4.8 16.1 0.00 0.00 0.00 77 1021.6
20260507130531 3 60 4.8 14.5 0.00 0.00 0.00 77 1021.7
20260507130031 3 11 6.4 14.5 0.00 0.00 0.00 77 1021.6
20260507125531 3 355 4.8 12.9 0.00 0.00 0.00 76 1021.6
20260507125032 3 36 3.2 9.7 0.00 0.00 0.00 76 1021.7
20260507124750 3 27 4.8 12.9 0.00 0.00 0.00 75 1021.4
20260507124030 3 28 3.2 12.9 0.00 0.00 0.00 75 1021.4
20260507123524 3 351 3.2 8.0 0.00 0.00 0.00 75 1021.4
20260507123018 3 0 4.8 12.9 0.00 0.00 0.00 74 1021.4
20260507122512 3 0 4.8 14.5 0.00 0.00 0.00 74 1021.2
20260507122006 3 54 4.8 14.5 0.00 0.00 0.00 74 1021.2
20260507121500 3 25 3.2 12.9 0.00 0.00 0.00 74 1021.2
20260507120954 3 35 3.2 8.0 0.00 0.00 0.00 73 1021.3
20260507120448 3 35 3.2 8.0 0.00 0.00 0.00 73 1021.2
20260507120246 3 55 3.2 8.0 0.00 0.00 0.00 72 1021.2
20260507120146 3 50 3.2 9.7 0.00 0.00 0.00 72 1021.2
20260507114936 3 5 3.2 9.7 0.00 0.00 0.00 71 1021.2
20260507114654 3 0 3.2 9.7 0.00 0.00 0.00 71 1021.2
20260507113937 3 355 1.6 8.0 0.00 0.00 0.00 69 1021.2
20260507113437 3 34 3.2 14.5 0.00 0.00 0.00 68 1021.2
20260507112936 3 0 4.8 14.5 0.00 0.00 0.00 67 1021.0
20260507112700 3 10 4.8 14.5 0.00 0.00 0.00 66 1021.1
20260507111935 3 326 3.2 8.0 0.00 0.00 0.00 65 1021.2
20260507111919 4 349 1.6 6.4 0.00 0.00 0.00 65 1021.1
20260507110935 4 340 0.0 4.8 0.00 0.00 0.00 65 1021.2
20260507110434 4 340 1.6 4.8 0.00 0.00 0.00 65 1021.2
20260507105935 4 355 1.6 6.4 0.00 0.00 0.00 66 1021.1
20260507105435 4 69 3.2 6.4 0.00 0.00 0.00 66 1021.2
20260507105156 4 5 3.2 8.0 0.00 0.00 0.00 66 1021.2
20260507104433 4 55 3.2 8.0 0.00 0.00 0.00 67 1021.1
20260507103928 4 9 3.2 6.4 0.00 0.00 0.00 67 1021.3
20260507103429 5 42 3.2 6.4 0.00 0.00 0.00 67 1021.3
20260507102929 5 336 1.6 6.4 0.00 0.00 0.00 66 1021.2
20260507102428 5 50 3.2 8.0 0.00 0.00 0.00 66 1021.3
20260507102128 5 336 4.8 8.0 0.00 0.00 0.00 65 1021.1
20260507102013 5 55 4.8 8.0 0.00 0.00 0.00 66 1021.1
20260507100928 5 25 1.6 8.0 0.00 0.00 0.00 65 1021.1
20260507100429 5 5 1.6 6.4 0.00 0.00 0.00 64 1021.1
20260507100150 5 355 3.2 8.0 0.00 0.00 0.00 64 1021.0
20260507095424 5 355 3.2 9.7 0.00 0.00 0.00 63 1021.1
20260507094924 5 19 4.8 12.9 0.00 0.00 0.00 62 1021.1
20260507094425 6 341 4.8 12.9 0.00 0.00 0.00 61 1021.0
20260507093924 6 0 4.8 8.0 0.00 0.00 0.00 60 1020.9
20260507093425 6 319 3.2 8.0 0.00 0.00 0.00 58 1021.0
20260507092925 6 328 1.6 6.4 0.00 0.00 0.00 56 1021.0
20260507092424 6 338 1.6 4.8 0.00 0.00 0.00 54 1021.0
20260507091924 6 15 1.6 6.4 0.00 0.00 0.00 53 1021.0
20260507091425 6 62 1.6 8.0 0.00 0.00 0.00 51 1021.0
20260507090918 6 49 1.6 8.0 0.00 0.00 0.00 49 1021.0
20260507090412 6 5 1.6 4.8 0.00 0.00 0.00 44 1021.0
20260507090122 7 339 1.6 3.2 0.00 0.00 0.00 41 1020.9
20260507085400 7 335 1.6 4.8 0.00 0.00 0.00 40 1020.9
20260507084853 7 343 3.2 8.0 0.00 0.00 0.00 40 1020.7
20260507084347 7 26 1.6 8.0 0.00 0.00 0.00 39 1020.6
20260507083841 7 329 1.6 6.4 0.00 0.00 0.00 38 1020.7
20260507083335 7 355 1.6 4.8 0.00 0.00 0.00 38 1020.7
20260507083313 7 355 1.6 6.4 0.00 0.00 0.00 37 1020.7
20260507082324 7 345 1.6 6.4 0.00 0.00 0.00 37 1020.7
20260507081818 7 355 1.6 6.4 0.00 0.00 0.00 37 1020.6
20260507081531 7 61 3.2 6.4 0.00 0.00 0.00 38 1020.7
20260507080806 7 49 1.6 6.4 0.00 0.00 0.00 39 1020.7
20260507080301 7 48 1.6 6.4 0.00 0.00 0.00 39 1020.6
20260507080241 7 55 0.0 3.2 0.00 0.00 0.00 39 1020.6
20260507075248 7 55 0.0 1.6 0.00 0.00 0.00 40 1020.5
20260507074742 7 55 0.0 1.6 0.00 0.00 0.00 39 1020.4
20260507074235 7 55 0.0 3.2 0.00 0.00 0.00 37 1020.3
20260507073730 8 54 1.6 4.8 0.00 0.00 0.00 38 1020.3
20260507073224 8 53 1.6 4.8 0.00 0.00 0.00 37 1020.3
20260507072717 8 66 1.6 4.8 0.00 0.00 0.00 38 1020.3
20260507072436 8 59 1.6 4.8 0.00 0.00 0.00 37 1020.0
20260507071717 8 56 1.6 3.2 0.00 0.00 0.00 38 1020.0
20260507071214 8 49 0.0 3.2 0.00 0.00 0.00 37 1020.0
20260507070714 8 15 0.0 3.2 0.00 0.00 0.00 37 1019.9
20260507070214 8 28 1.6 4.8 0.00 0.00 0.00 39 1020.0
20260507065714 8 55 1.6 4.8 0.00 0.00 0.00 40 1020.0